Home   Weather   Göppingen   Past weeks
Flag for Germany

Past Weather in Göppingen, Baden-Württemberg, Germany — Yesterday and Last 2 Weeks

Now
46 °F

Partly sunny.


Feels Like: 43 °F
Forecast: 50 / 39 °F
Wind: 7 mph from Southwest

Location: Stuttgart-Echterdingen

Current Time: Dec 7, 2019 at 12:46:06 pm

Latest Report: Dec 7, 2019 at 12:20 pm


Visibility: N/A

Pressure: 30.04 "Hg

Humidity: 87%

Dew Point: 43 °F

Location of GöppingenLocation

Past Weather in Göppingen — Graph

°F

Göppingen Temperature Yesterday

Maximum temperature yesterday: 48 °F (at 11:20 pm)
Minimum temperature yesterday: 19 °F (at 5:50 am)
Average temperature yesterday: 35 °F

High & Low Weather Summary for the Past Weeks

 TemperatureHumidityPressure
High55 °F (Nov 26, 2:50 pm)100% (Nov 22, 7:50 pm)30.39 "Hg (Nov 22, 7:50 pm)
Low19 °F (Dec 6, 5:50 am)57% (Dec 6, 1:20 pm)29.42 "Hg (Nov 23, 11:20 am)
Average38 °F84%29.90 "Hg
* Reported Nov 22 11:20 am — Dec 7 11:50 am, Göppingen. Weather by CustomWeather, © 2019

Note: Actual official high and low records may vary slightly from our data, if they occured in-between our weather recording intervals... More about our weather records

Göppingen Weather History for the Previous 24 Hours

Scroll right to see more
 ConditionsComfort  
Time TempWeatherWind HumidityBarometerVisibility
11:50 am
Sat, Dec 7
46 °FLight rain. Broken clouds.9 mph87%30.04 "HgN/A
11:20 am46 °FLight rain. Partly sunny.7 mph82%30.04 "HgN/A
10:50 am46 °FLight rain. Partly sunny.7 mph82%30.04 "HgN/A
10:20 am45 °FBroken clouds.8 mph87%30.04 "HgN/A
9:50 am45 °FLight rain. Broken clouds.8 mph87%30.04 "HgN/A
9:20 am45 °FBroken clouds.7 mph87%30.01 "HgN/A
8:50 am45 °FLight rain. Partly sunny.8 mph87%30.01 "HgN/A
8:20 am45 °FPartly sunny.7 mph81%30.01 "HgN/A
7:50 am43 °FPassing clouds.8 mph87%29.98 "HgN/A
7:20 am43 °FPassing clouds.7 mph87%29.98 "HgN/A
6:50 am45 °FPassing clouds.9 mph81%29.98 "HgN/A
6:20 am45 °FPassing clouds.8 mph81%29.95 "HgN/A
5:50 am45 °FPassing clouds.10 mph81%29.95 "HgN/A
5:20 am45 °FLight rain. Passing clouds.10 mph81%29.95 "HgN/A
4:50 am46 °FLight rain. Passing clouds.10 mph76%29.95 "HgN/A
4:20 am46 °FLight rain. Passing clouds.13 mph76%29.92 "HgN/A
3:50 am46 °FLight rain. Passing clouds.13 mph76%29.92 "HgN/A
3:20 am48 °FLight rain. Passing clouds.9 mph71%29.92 "HgN/A
2:50 am48 °FPassing clouds.10 mph71%29.92 "HgN/A
2:20 am48 °FLight rain. Partly cloudy.13 mph71%29.92 "HgN/A
1:50 am48 °FPassing clouds.12 mph71%29.92 "HgN/A
1:20 am48 °FPassing clouds.12 mph71%29.92 "HgN/A
12:50 am48 °FPartly cloudy.8 mph71%29.92 "HgN/A
12:20 am48 °FPassing clouds.10 mph71%29.92 "HgN/A
11:50 pm
Fri, Dec 6
48 °FPassing clouds.13 mph71%29.92 "HgN/A
11:20 pm48 °FPassing clouds.7 mph66%29.92 "HgN/A
10:50 pm46 °FPassing clouds.6 mph66%29.95 "HgN/A
10:20 pm46 °FPassing clouds.8 mph62%29.95 "HgN/A
9:50 pm46 °FLight rain. Passing clouds.7 mph62%29.95 "HgN/A
9:20 pm45 °FPassing clouds.5 mph66%29.95 "HgN/A
8:50 pm45 °FPassing clouds.5 mph66%29.95 "HgN/A
8:20 pm45 °FPassing clouds.7 mph66%29.95 "HgN/A
7:50 pm45 °FPassing clouds.3 mph61%29.95 "HgN/A
7:20 pm43 °FPassing clouds.3 mph66%29.98 "HgN/A
6:50 pm39 °FPassing clouds.3 mph75%29.98 "HgN/A
6:20 pm39 °FClear.2 mph75%29.98 "Hg10 mi
5:50 pm39 °FClear.2 mph75%29.98 "Hg10 mi
5:20 pm39 °FPassing clouds.3 mph70%29.98 "HgN/A
4:50 pm39 °FClear.3 mph70%29.98 "Hg10 mi
4:20 pm41 °FSunny.2 mph70%29.98 "Hg10 mi
3:50 pm45 °FPassing clouds.3 mph66%29.98 "HgN/A
3:20 pm46 °FSunny.3 mph66%29.98 "Hg10 mi
2:50 pm45 °FPassing clouds.3 mph66%30.01 "HgN/A
2:20 pm45 °FSunny.3 mph61%30.01 "Hg10 mi
1:50 pm45 °FPassing clouds.3 mph61%30.01 "HgN/A
1:20 pm45 °FSunny.5 mph57%30.04 "Hg10 mi
12:50 pm43 °FPassing clouds.5 mph61%30.04 "HgN/A
12:20 pm43 °FPassing clouds.5 mph61%30.07 "HgN/A
Weather by CustomWeather, © 2019

See weather overview

Advertising